Location: Newark
(46.7000°N, 60.6000°W)
Time: 04:31:05
(UTC+00:00)

A-11 Canister half - Pass Details

Date: 05 November 2020
Orbit: 1525 x 1683 km, 47.3° (Epoch: 23 November)

Event Time Altitude Azimuth Distance (km) Brightness Sun altitude
Rises 19:25:15 0° 273° (W) 4,789 12.4 10.3°
Reaches altitude 10° 19:28:22 10° 274° (W) 3,783 12.0 9.9°
Maximum altitude 19:37:58 87° 5° (N) 1,553 9.2 8.6°
Drops below altitude 10° 19:47:20 10° 96° (E) 3,695 10.6 7.2°
Sets 19:50:21 0° 96° (E) 4,673 11.1 6.8°
